Granada, Spain

10:54 AM CEST on August 21, 2017 (GMT +0200)
Granada

Weather History for LEGR - August, 2014

Change the Weather History Date:

Friday, August 22, 2014

  Actual Average Record
Temperature  
Mean Temperature 74 °F -  
Max Temperature 93 °F 84 °F 101 °F (2013)
Min Temperature 54 °F 55 °F 50 °F (1996)
Cooling Degree Days 8    
Growing Degree Days 24 (Base 50)    
Moisture  
Dew Point 46 °F    
Average Humidity 35    
Maximum Humidity 77    
Minimum Humidity 7    
Precipitation  
Precipitation 0.00 in - - ()
Sea Level Pressure  
Sea Level Pressure 29.99 in    
Wind  
Wind Speed 4 mph ()    
Max Wind Speed 16 mph    
Max Gust Speed -    
Visibility 15.8 miles    
Events      
Averages and records for this station are not official NWS values.
T = Trace of Precipitation, MM = Missing Value Source: Averaged Metar Reports

Daily Weather History Graph

Daily Weather History Graph

Search for Another Location

Airport or City:

Trip Planner

Search our weather history database for the weather conditions in past years. The results will help you decide how hot, cold, wet, or windy it might be!

Date:

Astronomy

Aug. 22, 2014 Rise Set
Actual Time 7:37 AM CEST 8:58 PM CEST
Civil Twilight 7:10 AM CEST 9:25 PM CEST
Nautical Twilight 6:37 AM CEST 9:57 PM CEST
Astronomical Twilight 6:03 AM CEST 10:31 PM CEST
Moon 4:49 AM CEST (8/22) 6:56 PM CEST (8/22)
Length of Visible Light 14h 15m
Length of Day
13h 20m
Waning Crescent, 9% of the Moon is Illuminated
Aug 22
Waning Crescent
Aug 25
New
Sep 2
First Quarter
Sep 9
Full
Sep 16
Last Quarter

Hourly Weather History & Observations

Time (CEST) Temp. Dew Point Humidity Pressure Visibility Wind Dir Wind Speed Gust Speed Precip Events Conditions
12:00 AM 74 °F 49 °F 30% 29.95 in 19 mi WSW 3.5 mph - -  
1:00 AM 71 °F 49 °F 35% 29.97 in 19 mi WSW 2.3 mph - -  
2:00 AM 71 °F 49 °F 34% 29.97 in 19 mi SW 2.3 mph - -  
3:00 AM 65 °F 53 °F 57% 29.99 in 19 mi North 1.2 mph - -  
4:00 AM 63 °F 49 °F 51% 29.99 in 19 mi SW 1.2 mph - -  
5:00 AM 60 °F 48 °F 54% 30.00 in 19 mi South 2.3 mph - -  
6:00 AM 58 °F 48 °F 59% 30.01 in 19 mi Calm Calm - -  
6:00 AM 59.0 °F 48.2 °F 67% 30.04 in - Calm Calm - N/A   Clear
6:30 AM 57.2 °F 46.4 °F 67% 30.04 in - Calm Calm - N/A   Clear
7:00 AM 56 °F 46 °F 60% 30.02 in 19 mi Calm Calm - -  
7:00 AM 57.2 °F 48.2 °F 72% 30.04 in - Calm Calm - N/A   Clear
7:30 AM 55.4 °F 46.4 °F 72% 30.04 in - Calm Calm - N/A   Clear
8:00 AM 56 °F 47 °F 63% 30.04 in 19 mi Calm Calm - -  
8:00 AM 55.4 °F 48.2 °F 77% 30.04 in - Calm Calm - N/A   Clear
8:30 AM 60.8 °F 50.0 °F 68% 30.04 in - Calm Calm - N/A   Clear
9:00 AM 67 °F 48 °F 40% 30.00 in 12 mi Calm Calm - -  
9:00 AM 66.2 °F 50.0 °F 56% 30.04 in - Calm Calm - N/A   Clear
9:30 AM 68.0 °F 53.6 °F 60% 30.06 in - Variable 1.2 mph - N/A   Clear
10:00 AM 71 °F 52 °F 41% 29.99 in 11 mi NNW 1.2 mph - -  
10:00 AM 68.0 °F 53.6 °F 60% 30.06 in - Variable 1.2 mph - N/A   Clear
10:30 AM 71.6 °F 51.8 °F 50% 30.06 in - Calm Calm - N/A   Clear
11:00 AM 78 °F 49 °F 25% 29.96 in 16 mi Calm Calm - -  
11:00 AM 75.2 °F 50.0 °F 41% 30.06 in - Calm Calm - N/A   Clear
11:30 AM 77.0 °F 50.0 °F 39% 30.06 in - Variable 1.2 mph - N/A   Clear
12:00 PM 82 °F 49 °F 21% 29.95 in 19 mi North 2.3 mph - -  
12:00 PM 78.8 °F 48.2 °F 34% 30.06 in - Variable 1.2 mph - N/A   Clear
12:30 PM 80.6 °F 48.2 °F 32% 30.06 in - Variable 2.3 mph - N/A   Clear
1:00 PM 86 °F 46 °F 15% 29.93 in 16 mi West 6.9 mph - -  
1:00 PM 82.4 °F 46.4 °F 28% 30.06 in - West 5.8 mph - N/A   Clear
1:30 PM 86.0 °F 46.4 °F 25% 30.04 in - West 5.8 mph - N/A   Clear
2:00 PM 90 °F 40 °F 10% 29.90 in 19 mi West 9.2 mph - -  
2:00 PM 87.8 °F 44.6 °F 22% 30.04 in - West 8.1 mph - N/A   Clear
2:30 PM 89.6 °F 41.0 °F 18% 30.04 in - West 10.4 mph - N/A   Clear
3:00 PM 92 °F 40 °F 9% 29.88 in 19 mi West 10.4 mph - -  
3:00 PM 89.6 °F 41.0 °F 18% 30.01 in - WNW 9.2 mph - N/A   Clear
3:30 PM 89.6 °F 42.8 °F 20% 30.01 in - WNW 11.5 mph - N/A   Clear
4:00 PM 92 °F 40 °F 9% 29.87 in 19 mi West 13.8 mph - -  
4:00 PM 89.6 °F 42.8 °F 20% 30.01 in - West 12.7 mph - N/A   Clear
4:30 PM 89.6 °F 42.8 °F 20% 30.01 in - West 12.7 mph - N/A   Clear
5:00 PM 92 °F 36 °F 7% 29.86 in 19 mi WNW 16.1 mph - -   Scattered Clouds
5:00 PM 89.6 °F 41.0 °F 18% 30.01 in 6.2 mi WNW 16.1 mph - N/A   Partly Cloudy
5:30 PM 89.6 °F 46.4 °F 22% 30.01 in 6.2 mi WNW 12.7 mph - N/A   Partly Cloudy
6:00 PM 91 °F 40 °F 9% 29.86 in 19 mi West 12.7 mph - -  
6:00 PM 89.6 °F 41.0 °F 18% 30.01 in 6.2 mi West 12.7 mph - N/A   Partly Cloudy
6:30 PM 87.8 °F 41.0 °F 19% 29.98 in 6.2 mi West 13.8 mph - N/A   Partly Cloudy
7:00 PM 89 °F 37 °F 9% 29.86 in 19 mi West 15.0 mph - -  
7:30 PM 86.0 °F 42.8 °F 22% 29.98 in 6.2 mi West 11.5 mph - N/A   Partly Cloudy
8:00 PM 87 °F 42 °F 12% 29.87 in 19 mi West 10.4 mph - -  
8:00 PM 84.2 °F 42.8 °F 23% 29.98 in - West 9.2 mph - N/A   Clear
8:30 PM 82.4 °F 46.4 °F 28% 30.01 in - West 6.9 mph - N/A   Clear
9:00 PM 80 °F 44 °F 18% 29.90 in 19 mi WSW 6.9 mph - -  
9:30 PM 77.0 °F 44.6 °F 32% 30.01 in - WSW 8.1 mph - N/A   Clear
10:00 PM 77 °F 44 °F 20% 29.93 in 19 mi SE 2.3 mph - -  
10:00 PM 78.8 °F 44.6 °F 30% 30.01 in - ESE 3.5 mph - N/A   Clear
10:30 PM 77.0 °F 44.6 °F 32% 30.04 in - West 6.9 mph - N/A   Clear
11:00 PM 74 °F 45 °F 24% 29.96 in 12 mi Calm Calm - -  
11:00 PM 73.4 °F 46.4 °F 38% 30.04 in - Calm Calm - N/A   Clear
11:30 PM 71.6 °F 46.4 °F 41% 30.04 in - Variable 1.2 mph - N/A   Clear